TimePDT,TemperatureF,Dew PointF,Humidity,Sea Level PressureIn,VisibilityMPH,Wind Direction,Wind SpeedMPH,Gust SpeedMPH,PrecipitationIn,Events,Conditions,WindDirDegrees,DateUTC
12:53 AM,66.9,41.0,39,29.82,10.0,West,11.5,-,N/A,,Clear,260,2013-07-11 07:53:00
1:53 AM,64.0,39.9,41,29.84,10.0,West,12.7,-,N/A,,Clear,260,2013-07-11 08:53:00
2:53 AM,60.1,39.9,47,29.85,10.0,WNW,6.9,-,N/A,,Clear,290,2013-07-11 09:53:00
3:53 AM,59.0,37.9,46,29.86,10.0,West,10.4,-,N/A,,Clear,270,2013-07-11 10:53:00
4:53 AM,55.9,39.0,53,29.89,10.0,WSW,6.9,-,N/A,,Clear,240,2013-07-11 11:53:00
5:53 AM,54.0,37.9,55,29.89,10.0,WNW,5.8,-,N/A,,Clear,300,2013-07-11 12:53:00
6:53 AM,62.1,39.0,43,29.89,10.0,NE,6.9,-,N/A,,Clear,50,2013-07-11 13:53:00
7:53 AM,68.0,41.0,37,29.88,10.0,Calm,Calm,-,N/A,,Clear,0,2013-07-11 14:53:00
8:53 AM,75.0,37.9,26,29.87,10.0,West,11.5,-,N/A,,Clear,270,2013-07-11 15:53:00
9:53 AM,78.1,36.0,22,29.88,10.0,West,9.2,-,N/A,,Clear,260,2013-07-11 16:53:00
10:36 AM,80.6,39.2,23,30.00,1.2,WSW,6.9,-,N/A,,Haze,240,2013-07-11 17:36:00
10:44 AM,80.6,39.2,23,30.00,10.0,Calm,Calm,-,N/A,,Clear,0,2013-07-11 17:44:00
10:53 AM,-9999,-9999,N/A,30.00,1.2,Variable,6.9,-,N/A,,Clear,0,2013-07-11 17:53:00
11:03 AM,-9999,-9999,N/A,30.00,0.8,South,9.2,-,N/A,,Clear,180,2013-07-11 18:03:00
11:07 AM,-9999,-9999,N/A,30.00,2.5,South,12.7,17.3,N/A,,Clear,170,2013-07-11 18:07:00
11:14 AM,-9999,-9999,N/A,30.00,10.0,South,12.7,18.4,N/A,,Clear,190,2013-07-11 18:14:00
11:53 AM,87.1,36.0,16,29.85,10.0,South,10.4,-,N/A,,Clear,180,2013-07-11 18:53:00
12:53 PM,82.9,37.9,20,29.85,10.0,SSE,8.1,-,N/A,,Clear,160,2013-07-11 19:53:00
1:53 PM,84.0,36.0,18,29.83,10.0,Calm,Calm,-,N/A,,Clear,0,2013-07-11 20:53:00
2:53 PM,87.1,36.0,16,29.81,10.0,SSW,10.4,-,N/A,,Partly Cloudy,210,2013-07-11 21:53:00
3:53 PM,81.0,30.9,16,29.81,10.0,SW,18.4,29.9,N/A,,Partly Cloudy,230,2013-07-11 22:53:00
4:53 PM,84.0,34.0,17,29.80,10.0,SW,18.4,29.9,N/A,,Clear,230,2013-07-11 23:53:00
5:53 PM,81.0,30.9,16,29.81,10.0,Variable,3.5,18.4,0.00,Rain,Light Rain,0,2013-07-12 00:53:00
6:53 PM,82.9,30.9,15,29.77,10.0,West,10.4,-,0.00,,Clear,260,2013-07-12 01:53:00
7:53 PM,73.9,39.9,29,29.77,10.0,West,6.9,-,N/A,,Clear,280,2013-07-12 02:53:00
8:53 PM,66.0,34.0,30,29.78,10.0,NW,6.9,-,N/A,,Clear,310,2013-07-12 03:53:00
9:53 PM,71.1,34.0,26,29.80,10.0,NW,12.7,-,N/A,,Clear,310,2013-07-12 04:53:00
10:53 PM,64.0,36.0,35,29.94,10.0,West,6.9,-,N/A,,Clear,260,2013-07-12 05:53:00
11:53 PM,62.1,32.0,32,29.83,10.0,WSW,8.1,-,N/A,,Clear,250,2013-07-12 06:53:00